Regional Weather Roundup
Issued by NWS

Home | Current Version | Previous Version | Graphics & Text | Print | Product List | Glossary Off
Versions: 1 2 3 4 5 6 7 8 9 10 11 12 13 14 15 16 17 18 19 20 21 22 23 24 25 26 27 28 29 30 31 32 33 34 35 36 37 38 39 40 41 42 43 44 45 46 47 48 49 50

000
ASUS43 KMKX 251800
RWRWI

WISCONSIN REGIONAL WEATHER ROUNDUP
NATIONAL WEATHER SERVICE MILWAUKEE/SULLIVAN WI
100 PM CDT WED MAY 25 2016

NOTE: "FAIR" INDICATES FEW OR NO CLOUDS BELOW 12,000 FEET WITH NO
SIGNIFICANT WEATHER AND/OR OBSTRUCTIONS TO VISIBILITY.

WIZ001-002-006>008-014>016-023>028-251900-
NORTHWEST WISCONSIN

CITY           SKY/WX    TMP DP  RH WIND       PRES   REMARKS
SUPERIOR ARPT  CLOUDY    44  44 100 NE12G23   30.02F FOG
ASHLAND        CLOUDY    54  53  97 NE10      30.02F
6HR MIN TEMP:  51; 6HR MAX TEMP:  55;

HAYWARD        CLOUDY    75  57  53 E12       29.93F
6HR MIN TEMP:  54; 6HR MAX TEMP:  75;

SIREN          CLOUDY    68  60  75 N3        29.93S
CUMBERLAND     CLOUDY    73  57  56 E8        29.91F
RICE LAKE      CLOUDY    77  57  50 E9        29.91F
CHETEK         CLOUDY    77  62  59 SE7G17    29.90F
LADYSMITH      CLOUDY    77  59  54 E10       29.95F
EAU CLAIRE     NOT AVBL
MENOMONIE      DRIZZLE   76  60  58 SE14      29.90R
NEW RICHMOND   LGT RAIN  67  64  88 NE5       29.89S
OSCEOLA        HVY RAIN  67  65  96 CALM      29.92F
$$

WIZ003>005-009-010-017-018-251900-
NORTH CENTRAL WISCONSIN

CITY           SKY/WX    TMP DP  RH WIND       PRES   REMARKS
MANITOWISH WTR NOT AVBL
ARBOR VITAE    PTSUNNY   72  57  58 E6        30.02F
WOODRUFF       PTSUNNY   72  57  58 E6        30.02F
RHINELANDER    MOSUNNY   73  59  61 NE9       30.02F
6HR MIN TEMP:  57; 6HR MAX TEMP:  73;

EAGLE RIVER      N/A     72  54  52 E7        30.02F
LAND O LAKES   CLOUDY    69  55  61 E6        30.05F
PHILLIPS       CLOUDY    73  59  60 E9        29.97F
6HR MIN TEMP:  54; 6HR MAX TEMP:  73;

TOMAHAWK       MOSUNNY   73  60  63 E5        30.01F
MEDFORD        PTSUNNY   72  61  68 E12       29.97F
MERRILL        SUNNY     71  61  70 E9        29.99F
$$

WIZ029-030-035-036-043>047-251900-
CENTRAL WISCONSIN

CITY           SKY/WX    TMP DP  RH WIND       PRES   REMARKS
WAUSAU         CLOUDY    73  59  61 SE9       29.97F
6HR MIN TEMP:  60; 6HR MAX TEMP:  73;

MOSINEE        PTSUNNY   66  61  82 E13       30.00F
MARSHFIELD     CLOUDY    75  60  59 E12G24    29.94F
6HR MIN TEMP:  62; 6HR MAX TEMP:  75;

STEVENS POINT  PTSUNNY   67  57  70 E8        30.00F
WAUPACA        CLOUDY    75  59  57 NE6       30.00F
WAUTOMA        MOSUNNY   74  60  61 E13G18    29.96F
6HR MIN TEMP:  61; 6HR MAX TEMP:  74;

WISC RAPIDS    MOSUNNY   78  58  49 E14       29.95F
6HR MIN TEMP:  62; 6HR MAX TEMP:  78;

CAMP DOUGLAS   NOT AVBL
$$

WIZ011>013-019>022-031-037>040-048>050-251900-
NORTHEAST WISCONSIN

CITY           SKY/WX    TMP DP  RH WIND       PRES   REMARKS
ANTIGO         MOSUNNY   70  62  74 SE7       30.03F
SHAWANO        MOSUNNY   72  60  65 NE10      30.01F
6HR MIN TEMP:  60; 6HR MAX TEMP:  74;

OCONTO         CLOUDY    64  61  88 E7        30.04S
STURGEON BAY   NOT AVBL
GREEN BAY      PTSUNNY   68  59  73 NE12      30.02F
6HR MIN TEMP:  57; 6HR MAX TEMP:  69;

MANITOWOC      CLOUDY    61  55  82 NE12      30.04S
APPLETON       PTSUNNY   70  57  64 NE8       29.99F
CLINTONVILLE   CLOUDY    70  59  68 E9        30.01F
OSHKOSH        CLOUDY    73  61  65 E12       29.98F
6HR MIN TEMP:  61; 6HR MAX TEMP:  73;

$$

WIZ032>034-041-042-053>061-251900-
SOUTHWEST WISCONSIN

CITY           SKY/WX    TMP DP  RH WIND       PRES   REMARKS
LA CROSSE      CLOUDY    78  64  61 S5        29.86F HX  80
6HR MIN TEMP:  64; 6HR MAX TEMP:  79; 6HR PCP:  0.01;

SPARTA         CLOUDY    82  64  55 SE10G16   29.89F HX  83
VIROQUA        CLOUDY    79  59  50 SE16      29.90S HX  80
BOSCOBEL       CLOUDY    84  59  42 S14       29.87F HX  84
6HR MIN TEMP:  62; 6HR MAX TEMP:  85;

PRAIRIE DU CHI CLOUDY    80  58  46 SE14G24   29.86F HX  80
PLATTEVILLE    CLOUDY    80  59  48 SE17      29.92S HX  81
$$

WIZ056-057-062-063-064-067-068-251900-
SOUTH CENTRAL WISCONSIN

CITY           SKY/WX    TMP DP  RH WIND       PRES   REMARKS
REEDSBURG      MOSUNNY   81  63  54 SE5       29.91F HX  82
BARABOO/DELLS  MOSUNNY   82  60  46 SE10      29.92F HX  82
LONE ROCK      NOT AVBL
MINERAL POINT  CLOUDY    81  61  50 SE15G23   29.92S HX  81
MADISON        PTSUNNY   82  65  56 SE14      29.91F HX  84
6HR MIN TEMP:  66; 6HR MAX TEMP:  82;

MIDDLETON      MOSUNNY   83  62  49 SE12      29.93F HX  84
WATERTOWN      MOSUNNY   82  64  54 S6        29.94F HX  84
MONROE         CLOUDY    79  63  57 SE15      29.94S HX  80
JANESVILLE     MOSUNNY   84  61  45 SE15      29.93F HX  84
$$

WIZ051-052-058>065-066-070>072-251900-
SOUTHEAST WISCONSIN

CITY           SKY/WX    TMP DP  RH WIND       PRES   REMARKS
MILWAUKEE      PTSUNNY   59  52  77 NE13      30.00F
6HR MIN TEMP:  58; 6HR MAX TEMP:  77;

WAUKESHA       SUNNY     73  61  64 E8        29.99F
MILWAUKEE/TIMM SUNNY     68  52  56 E6        30.00F
RACINE         SUNNY     62  51  67 NE8       30.01F
6HR MIN TEMP:  61; 6HR MAX TEMP:  77;

BURLINGTON     MOSUNNY   83  59  44 SE10      29.96F HX  83
KENOSHA        MOSUNNY   74  61  63 E14       29.97F
6HR MIN TEMP:  69; 6HR MAX TEMP:  81;

FOND DU LAC    CLOUDY    76  60  57 E15       29.97F
6HR MIN TEMP:  64; 6HR MAX TEMP:  77;

SHEBOYGAN      CLOUDY    62  54  74 NE14      30.02F
6HR MIN TEMP:  57; 6HR MAX TEMP:  62;

WEST BEND      MOSUNNY   70  57  64 E9        30.00F
JUNEAU         PTSUNNY   79  65  60 E13       29.96F HX  81
$$

LSZ147-162-251900-
LAKE SUPERIOR

STATION/POSITION TIME  TEMP    WIND        PRES    WAVE
                       AIR SEA DIR/SP/G            HT/PER
                 (UTC) (F)     (DEG/KT/KT) (MB)    (FT/S)
W MID LAKE BUOY  1650   40 38   50/ 16/ 17 1018.6R   2/ 3
DEVILS ISLAND    1700   43      50/ 18/ 20 1018.7R
PORT WING        1700   43      40/ 17/ 20 1017.3S
SAXON HARBOR     1700   46     340/  3/  3 1016.9R
$$

LMZ867-665-643>646-251900-
LAKE MICHIGAN

STATION/POSITION TIME  TEMP    WIND        PRES    WAVE
                       AIR SEA DIR/SP/G            HT/PER
                 (UTC) (F)     (DEG/KT/KT) (MB)    (FT/S)
CHAMBERS ISLAND  1700   55      50/  9/ 11 1018.3S
N MID LAKE BUOY  1650   49 45   20/  8/  8 1018.2R   0
NORTHPORT PIER   1700   54     330/  4/  4 1018.3S
SISTER BAY       1650   55     340/ 12/ 14   N/A
ALGOMA LAKESHORE 1702           60/ 17/ 20   N/A
KEWAUNEE LAKESHO 1700   51      40/  5/  7 1016.9S
SHEBOYGAN LAKESH 1700   49     360/ 13/ 14 1017.4F
PORT WASHINGTON  1700   55      40/ 11/ 13 1017.3S
S MID LAKE BUOY  1650   54 50  160/  6/  8 1016.0F   1
KENOSHA   LAKESH 1700   54      30/ 10/ 12 1015.9R
$$

TC  - TEMPERATURE IN CELSIUS
VSB - VISIBILITY IN STATUTE MILES
WCI - WIND CHILL INDEX
HX  - HEAT INDEX





USA.gov is the U.S. government's official web portal to all federal, state and local government web resources and services.